Location: Adrasan
(36.3319°N, 30.4314°E)
Time: 11:57:58
(UTC+00:00)

Meteor 1-10 Rocket - Pass Details

Date: 30 May 2024
Orbit: 834 x 910 km, 81.3° (Epoch: 16 June)

Event Time Altitude Azimuth Distance (km) Brightness Sun altitude
Rises 19:12:17 0° 214° (SW) 3,449 7.2 -20.1°
Reaches altitude 10° 19:15:01 10° 225° (SW) 2,503 6.6 -20.4°
Maximum altitude 19:19:58 30° 285° (WNW) 1,483 6.0 -21.1°
Drops below altitude 10° 19:24:51 10° 346° (NNW) 2,475 7.6 -21.7°
Sets 19:27:34 0° 357° (N) 3,405 8.2 -22.0°
